Location: Unspecified
(42.1900°N, 71.3291°W)
Time: 07:21:48
(UTC-04:00)

Okean 3 - Visible Passes

Search period start: 29 May 2017 00:00
Search period end: 08 June 2017 00:00
Orbit: 578 x 602 km, 82.5° (Epoch: 28 May)

Date Brightness Start Highest point End Pass type
(mag) Time Alt. Az. Time Alt. Az. Time Alt. Az.
03 Jun 7.2 04:05:59 10° ENE 04:06:30 10° ENE 04:07:02 10° ENE visible
04 Jun 6.6 04:12:27 10° NNE 04:14:58 15° ENE 04:17:29 10° ESE visible
05 Jun 6.3 04:20:03 10° NNE 04:23:24 22° ENE 04:26:44 10° ESE visible
06 Jun 5.6 04:27:55 10° NNE 04:31:47 31° ENE 04:35:37 10° SE visible
07 Jun 4.7 04:35:58 10° N 04:40:08 46° ENE 04:44:15 10° SSE visible
